User: anonymous   Login
Location: Unspecified
(0.0000°N, 0.0000°E)
Time: 03:34:02
(UTC+00:00)
Language:

ATEX - Orbit

View from above orbital plane
View from above orbital plane
View from above satellite
View from above satellite

Ground track
Ground track

The orbit data is extracted from the following two-line orbital elements,

1 25615U 98055C   17134.87446975 0.00000050  00000-0  14367-4 0    05
2 25615  84.9871 173.8937 0006000 235.4745 124.5254 14.44948016    06
Epoch (UTC): 14 May 2017 20:59:14
Eccentricity: 0.0006000
inclination: 84.9871°
perigee height: 738 km
apogee height: 746 km
right ascension of ascending node: 173.8937°
argument of perigee: 235.4745°
revolutions per day: 14.44948016
mean anomaly at epoch: 124.5254°
orbit number at epoch: 0

The dashed part of the orbit path shows where the satellite is in the earth's shadow,  

DLR